Погода в Тобольске

Погода в Тобольске : погода сейчас, прогноз погоды и архив. Всё, что Вы хотите узнать о погоде в Тобольске!

Хотите узнать прогноз погоды в Тобольске? Тогда Вам сюда: Погода в Тобольске

Поиск расширенной информации на нашем сайте:

Другие новости

Новости СМИ2

Главная страница сайта

Новости сайта

03.07.2017

Напоминаем, что на нашем специализированном сайте Метеоцентр.Азия вы можете получить высокодетализированные автоматические прогнозы погоды по пунктам России, СНГ и мира в авиационном формате (включающие направление и скорость ветра, видимость, явления погоды, количество и форму облачности, нижнюю и верхнюю границу облачности).


Погода в Тобольске - сегодня

Время (UTC), дата Ветер
(°,м/с) 
Видим.   Явления Облачность Т
(°С)
Тd
(°С)
f(%) Тe
(°С)
Pmin
(гПа)
dP
(гПа)
Po
(мм)
O2
(г/м3)
Тmin Tmax R s Состояние
почвы
03 21.09.17 020 (С) 10 км  слаб. ливневой дождь  10/10 600 м кучево-дожд. 
[Cb cap]
+6.3 +5 91 +6  1016.2  2.1  758  298  +6.3    0.0     
06 21.09.17 010 (С) 20000 м  {ливн. осадки}  10/10 600 м кучево-дожд. 
[Cb cap]
+7.3 +4.5 82 +7  1018.4  2.2  759  297           
09 21.09.17 350 (С) 20000 м    10/10 600 м кучево-дожд. 
[Cb cap]
+8 +4.3 77 +7  1020  1.6  761  297           
12 21.09.17 330 (СЗ) 20000 м    10/10 600 м кучево-дожд. 
[Cb cap]
+8.8 +4.6 75 +9  1021.5  1.4  762  297           
15 21.09.17 330 (СЗ) 10 км  {ливн. осадки}  8/3 600 м кучево-дожд., средняя 
[Cb cap|Ac und]
+6.5 +5 90 +7  1022.8  1.3  763  299    +8.9  0.5     
18 21.09.17 310 (СЗ) 10 км  {ливн. осадки}  10/0 средняя, верхняя 
[Ac trans|Ci sp]
+5.8 +4.7 93 +6  1023.4  0.6  763  300           
21 21.09.17 300 (СЗ) 10 км    10/3 600 м средняя, верхняя 
[Sc|Ac trans|Ci sp]
+6 +4.3 89 +6  1023.4  763  300           
00 22.09.17 310 (СЗ) 10 км    10/5 600 м средняя 
[Sc|Ac trans]
+5.5 +3.8 89 +5  1023.6  0.2  763  301           
03 22.09.17 330 (СЗ) 20000 м    10/10 600 м кучево-дожд. 
[Cb cap]
+5.5 +3.1 85 +4  1024.1  0.5  764  301  +4.5         
06 22.09.17 350 (С) 3{11}  20000 м  {ливн. осадки}  8/8 600 м кучево-дожд. 
[Cb cap]
+5.6 -0.9 63 +5  1025.6  1.5  765  302           
09 22.09.17 350 (С) 6-11{12}  20000 м    10/10 600 м кучево-дожд. 
[Cb cap]
+5.1 -3.6 53 +3  1027  1.4  766  303           
12 22.09.17 350 (С) 3{12}  20000 м    10/10 600 м кучево-дожд. 
[Cb cap]
+4.5 -6.8 44 +3  1028.6  1.8  767  305           
15 22.09.17 350 (С) 4{10}  10 км    10/0 средняя 
[Ac und]
+3.7 -4.7 54 +2  1029.3  0.7  768  306    +5.8  0.0     
18 22.09.17 330 (СЗ) 3{10}  10 км    10/0 средняя 
[Ac und]
+2.6 -6.8 50 +1  1029.7  0.4  768  307           
21 22.09.17 350 (С) 10 км    10/3 600 м кучево-дожд., средняя 
[Cb cap|Ac und]
+2 -3.7 66 +1  1030.2  0.2  768  308           
00 23.09.17 350 (С) 4{10}  10 км    10/0 средняя 
[Ac und]
+1.4 -5.8 59 -1  1031.1  0.8  769  309           
03 23.09.17 340 (С) 20000 м    10/10 600 м 
[Sc]
+1.6 -4.9 62 1031.5  0.4  769  309  +1.4        влажная 
06 23.09.17 360 (С) 20000 м    10/10 600 м 
[Sc]
+1.4 -5 62 1032  0.5  769  309           
09 23.09.17 350 (С) 20000 м    10/8 600 м средняя 
[Sc|Ac und]
+3.4 -5 54 +1  1031.8  -0.1  769  307           
12 23.09.17 350 (С) 4{10}  20000 м    10/8 600 м средняя 
[Sc|Ac und]
+3.9 -4.3 55 +2  1031.8  769  306           
15 23.09.17 350 (С) 10 км    10/10 600 м 
[Sc]
+3.3 -2.9 64 +3  1032.3  0.5  770  307    +3.9       
18 23.09.17 060 (СВ) 10 км    10/10 600 м 
[Sc]
+1.6 -4 66 +1  1033.2  0.8  770  309           
21 23.09.17 060 (СВ) 10 км    10/5 600 м средняя 
[Sc|Ac trans]
+1.5 -4.6 64 +1  1034.1  0.9  771  309           
00 24.09.17 010 (С) 20000 м    10/4 600 м средняя 
[Sc|Ac trans]
+1.4 -4.9 63 +2  1035  772  310           
03 24.09.17 330 (СЗ) 20000 м    10/10 600 м 
[Sc]
+2.4 -4.2 62 +2  1036.1  1.1  772  309  +0.5        влажная 
Время (UTC), дата Ветер
(°,м/с) 
Видим.   Явления Облачность Т
(°С)
Тd
(°С)
f(%) Тe
(°С)
Pmin
(гПа)
dP
(гПа)
Po
(мм)
O2
(г/м3)
Тmin Tmax R s Состояние
почвы

Для получения пояснительной информации подведите курсор к названию столбца.

ПОГОДА в Тобольске - архив

Всё, что Вы хотите узнать о погоде в Тобольске - удобно и подробно!

Выберите нужную дату (начиная с 1 января 2015* года) и нажмите кнопку "Найти".
Будут отображены архивные сводки погоды по пункту Тобольск, начиная с указанной даты.


Отображать данные в формате CSV (для использования в таблицах Excel)


Внимание! Наш архив погоды предназначен исключительно для личного некоммерческого использования в познавательных целях. Если Вам необходимы официальные справки о состоянии погоды (для производственных, юридических, коммерческих и т.п. целей), обращайтесь в органы Росгидромета.

*Примечание: данная дата относится к архиву по метеостанциям СССР (Россия, СНГ, Балтия).
Архив по метеостанциям Зарубежной Европы и Азии (кроме Китая) хранится 10 дней, по другим регионам земного шара (Китай, Африка, Америка, Австралия, Океания) - 1 день.

Тобольск - район местоположения метеостанции


Название, широта, долгота, высота метеостанции:
Тобольск 58.2°ш. 68.2°д. 50 м над ур. моря [Российская Федерация]

Дополнительная информация

В oтличие oт бoльшинства пoгoдных сайтoв мы публикуем пoдрoбную метеoинфoрмацию в детальнoм прoфессиoнальнoм фoрмате.

Характеристики температуры и влажнoсти вoздуха измеряются на высoте 2 м в тени вдали oт зданий и деревьев.
Скoрoсть ветра измеряется на высoте 10 м (на урoвне рoста челoвека скoрoсть ветра ниже в 1.5-2 раза). Если метеoстанция нахoдится в гoрoде или в лесу, тo скoрoсть ветра занижена на 2-4 м/с пo сравнению с oткрытым местoм. Скoрoсть ветра над акватoриями крупных рек и oзёр, а также на вершинах хoлмoв на 2-5 м/с выше, чем в oбычных услoвиях.
Атмoсфернoе давление в разных тoчках местнoсти мoжет значительнo oтличаться oт давления на метеoстанции, в зависимoсти oт услoвий рельефа (при пoдъёме на 10 м давление пoнижается примернo на 1 мм рт.ст.).